Wetbulb
53.98 54.13 52.83 53.57 54.84 55.28 55.42 56.35 57.45 57.45 57.73 57.71 58.70 58.05 57.01 54.99 54.47 53.81 53.03 54.06 53.63 51.62 51.55 49.81 48.38 48.53 46.43 45.47 43.80 42.94 41.51 43.54 43.13 45.03 47.10 45.01 44.49 43.65 43.56 44.03 45.67 45.37 44.54
53.31 53.14 52.85 53.18 53.96 54.38 55.08 55.68 56.53 56.33 56.49 56.25 57.43 50.48 49.29 49.23 48.29 49.59 51.80 52.35 50.00 48.96 48.86 47.16 46.51 45.34 41.49 41.06 39.84 38.72 39.12 39.53 38.77 36.61 37.64 38.86 39.02 39.84 40.50 40.53 43.39 44.18 42.13
52.86 53.16 53.40 53.94 54.86 54.70 54.94 55.53 55.85 53.57 50.24 50.20 49.26 48.36 48.24 48.53 48.03 49.12 51.12 49.74 47.86 46.81 45.47 43.41 41.90 41.04 38.71 38.12 37.47 36.95 36.68 38.50 36.22 34.96 34.36 36.28 37.01 37.77 37.66 38.19 38.81 39.19 42.65
52.80 52.97 52.85 52.97 53.44 53.95 54.91 53.90 50.02 48.26 46.72 46.88 46.80 46.83 47.19 47.91 48.87 49.18 50.01 48.05 47.31 45.97 44.96 43.66 42.47 41.14 39.40 38.57 37.67 36.18 36.00 34.93 33.78 33.07 32.57 33.16 34.35 36.54 36.32 35.61 36.41 37.27 38.76
52.63 52.04 51.79 51.99 53.56 54.33 53.54 49.40 48.57 48.11 47.26 46.46 45.54 45.69 46.83 47.87 49.16 49.56 49.45 47.87 46.32 45.34 44.61 43.68 42.68 43.79 44.86 43.06 38.31 35.28 34.12 33.21 32.53 32.09 31.51 31.76 32.96 33.55 34.19 40.30 35.39 35.81 37.26
51.65 50.93 51.81 51.90 52.80 50.85 49.37 47.66 45.95 45.25 44.54 44.16 43.84 44.45 44.60 46.18 47.51 49.58 47.80 46.02 45.36 43.17 40.33 39.19 39.88 40.51 39.42 43.42 44.20 44.56 38.56 33.95 31.92 36.54 36.48 35.97 36.89 37.47 35.04 38.97 38.82 37.39 36.71
50.60 50.54 51.56 51.80 51.40 50.44 48.88 46.65 44.52 43.14 42.69 41.90 42.04 42.31 41.85 42.80 45.29 45.85 45.34 43.30 41.76 39.55 37.40 36.72 37.12 37.87 37.69 35.97 39.47 41.14 42.03 42.22 41.01 36.16 37.05 37.61 38.25 38.99 40.38 40.12 39.81 39.10 38.45
49.06 49.10 50.80 51.30 50.50 50.86 48.30 45.27 43.05 42.52 41.69 41.34 40.91 40.66 39.81 41.16 42.79 43.11 42.51 40.20 38.61 37.11 36.14 35.10 33.79 34.18 36.74 35.44 34.52 34.03 34.59 35.21 38.17 41.22 40.59 41.15 41.93 42.46 41.84 42.31 42.19 42.01 42.02
47.70 49.21 49.14 47.74 47.28 47.15 48.09 45.03 43.67 42.05 41.52 41.19 41.04 39.79 37.31 38.22 41.63 41.62 40.18 38.49 37.47 37.24 37.06 35.09 34.89 34.20 39.84 39.69 33.94 32.91 33.80 37.91 41.85 43.35 43.89 44.28 44.05 43.75 43.72 43.15 42.05 41.11 40.32
47.29 46.95 46.40 45.81 44.19 44.25 46.09 46.04 45.42 43.56 41.11 40.10 38.64 38.22 40.66 37.83 41.25 41.16 38.79 36.47 35.01 36.08 37.61 37.36 40.30 38.80 40.54 40.24 33.57 32.73 35.96 38.72 40.68 41.73 41.98 43.23 43.58 40.98 44.80 44.48 43.88 40.98 40.19
46.58 45.00 43.40 41.55 41.04 41.86 44.70 44.14 41.07 40.45 40.15 36.43 35.12 34.90 35.29 37.85 37.81 40.81 41.32 39.98 38.78 38.80 38.52 38.45 37.35 40.59 40.14 39.87 39.41 35.82 38.67 41.96 42.27 41.70 42.13 42.39 42.78 42.95 41.84 42.81 44.17 43.89 42.25
45.07 41.89 40.02 39.05 39.45 40.80 41.08 41.82 44.25 41.29 37.97 33.93 33.19 33.76 34.86 34.66 39.79 40.68 40.83 41.12 41.88 39.13 35.36 35.36 35.57 40.03 39.90 40.16 40.95 41.59 41.74 42.69 42.45 41.96 42.00 41.65 41.87 42.57 43.56 44.37 44.48 44.12 44.27
41.09 40.59 41.37 41.10 40.13 40.21 38.87 36.99 36.16 35.32 33.99 33.88 33.58 35.37 36.90 38.27 39.74 41.26 40.99 40.90 42.00 40.52 39.12 40.87 40.88 40.16 40.81 41.49 42.32 42.57 42.44 42.42 42.56 41.98 41.85 42.57 43.50 44.07 44.57 43.66 43.77 43.89 43.51
39.24 38.70 41.02 40.31 39.55 38.38 37.29 36.29 34.33 33.30 33.33 34.11 36.33 37.83 38.89 39.37 39.68 40.13 40.88 40.20 39.34 38.29 38.97 38.83 40.75 41.42 41.95 42.44 42.37 43.15 43.45 44.86 44.00 42.95 42.81 43.33 43.70 43.13 42.26 42.63 41.73 41.99 40.91
39.55 41.36 40.71 40.54 40.27 39.11 36.53 34.67 35.81 37.51 37.47 38.67 38.71 39.19 39.25 39.68 40.30 39.94 40.02 40.42 37.72 40.44 40.97 40.28 40.29 39.84 40.23 40.95 41.82 42.95 43.55 44.32 43.72 43.62 43.00 42.13 41.95 42.04 41.80 42.45 41.88 41.35 39.89
42.50 42.02 41.47 41.04 40.46 38.94 38.01 37.57 39.92 39.48 39.27 38.50 38.62 39.42 42.50 40.04 39.71 39.81 39.73 39.79 39.71 39.86 41.00 39.61 39.43 39.64 39.83 40.02 40.73 41.42 43.03 43.68 43.95 43.16 42.45 42.18 41.22 40.78 40.65 41.25 41.22 40.27 39.22
43.26 43.99 43.09 41.42 41.24 40.26 40.08 40.04 36.67 40.74 40.98 39.90 39.00 39.47 39.25 39.30 39.84 39.73 39.74 39.84 40.07 41.30 41.45 41.27 40.75 40.58 40.58 41.27 41.67 42.21 42.19 43.84 44.26 43.57 42.60 41.86 41.38 41.38 41.02 40.33 40.33 39.94 39.18
44.21 44.67 46.00 44.25 42.51 42.12 42.28 41.10 41.03 40.47 39.73 38.47 40.69 40.16 39.53 39.46 39.60 39.89 40.32 42.59 44.57 44.49 43.46 42.70 42.01 42.01 42.01 42.19 42.72 42.92 43.61 43.21 43.16 42.93 42.52 42.60 42.39 41.63 40.46 40.05 40.24 39.81 39.68
43.60 44.24 41.82 40.81 41.42 42.22 42.66 42.15 41.29 38.96 40.41 38.60 41.35 41.74 41.10 39.81 40.57 40.97 41.54 44.92 43.99 43.97 44.31 44.49 44.37 44.00 43.66 43.50 43.51 43.06 43.00 42.51 42.52 42.68 42.64 42.81 42.88 41.86 41.02 41.09 40.66 36.88 38.56
43.07 41.23 39.42 40.09 42.13 42.20 42.42 41.73 38.78 37.23 37.64 40.36 41.55 41.15 42.39 42.92 43.71 44.13 45.13 45.15 44.84 44.69 44.68 44.13 44.33 44.51 44.53 44.04 43.46 43.30 43.44 43.16 43.22 42.83 42.84 43.01 43.36 42.94 41.86 41.47 41.39 40.73 40.66
43.35 39.84 36.13 39.81 41.78 42.43 42.58 41.80 41.28 40.79 41.20 40.63 41.46 40.49 34.13 42.54 42.60 43.25 44.16 44.75 44.53 44.73 44.66 44.17 43.63 43.50 43.21 42.91 42.96 42.73 42.42 43.16 44.22 43.93 43.40 43.71 43.59 42.97 43.62 42.76 42.08 42.15 40.84
40.57 39.63 38.94 40.07 42.10 42.17 41.98 41.65 41.34 41.90 42.36 42.32 42.88 43.01 35.98 42.95 42.73 43.20 43.89 44.58 45.12 44.95 45.87 43.67 42.58 41.17 40.10 38.91 39.97 40.14 38.28 40.64 41.25 40.84 43.05 44.37 45.18 44.43 43.96 43.98 43.07 42.52 41.69
40.28 39.82 38.92 41.29 42.10 39.71 41.84 41.93 41.91 41.76 42.14 42.32 42.91 42.96 42.66 42.51 42.39 43.01 43.81 44.20 44.10 42.87 42.26 42.09 40.96 39.99 40.12 38.79 38.04 39.97 38.71 38.11 39.33 41.05 42.66 42.89 43.38 44.81 43.85 44.34 43.70 42.51 41.80
42.93 43.09 42.10 41.57 41.69 41.49 41.43 41.34 41.59 39.66 41.86 42.75 43.18 43.55 43.39 42.99 43.48 43.44 44.03 44.68 44.56 44.30 43.55 42.22 41.21 39.66 39.29 38.73 38.06 37.53 38.26 36.85 37.14 41.11 43.31 46.13 45.49 44.16 45.83 44.85 43.85 43.78 41.89
43.56 42.78 42.30 41.47 41.22 41.21 41.29 41.34 41.54 42.06 42.38 42.66 42.94 43.12 43.66 43.47 43.25 43.53 43.93 44.41 44.21 43.51 42.89 42.22 40.40 39.28 38.92 38.32 37.29 36.25 34.76 33.35 36.15 34.62 45.01 46.38 46.93 46.65 45.94 44.66 44.44 42.96 41.40
43.87 43.14 42.20 41.74 41.41 41.44 41.18 40.99 41.27 41.64 41.75 42.20 42.55 42.88 42.97 42.91 42.72 42.73 42.55 42.65 42.56 42.65 41.26 40.38 40.34 39.63 38.03 37.77 36.10 33.32 33.42 33.61 35.42 34.03 42.05 46.43 45.56 45.95 45.93 44.91 44.71 43.21 42.38
MSLP
1012.65 1012.10 1011.64 1011.06 1010.39 1009.85 1009.40 1008.83 1008.15 1007.70 1007.22 1007.06 1007.17 1007.36 1007.56 1007.91 1007.66 1007.30 1006.95 1006.67 1007.24 1007.52 1007.88 1008.08 1008.84 1009.49 1010.21 1010.12 1010.13 1010.25 1010.36 1010.39 1010.56 1010.61 1010.82 1010.86 1010.83 1010.85 1010.75 1010.63 1010.44 1010.31 1010.13
1012.87 1012.37 1011.83 1011.21 1010.60 1009.93 1009.20 1008.51 1008.06 1007.58 1007.11 1007.07 1007.19 1007.93 1008.47 1008.42 1008.13 1007.75 1007.52 1007.19 1007.50 1008.10 1008.53 1008.79 1009.42 1010.09 1010.54 1010.82 1011.02 1011.09 1010.92 1010.92 1011.21 1011.46 1011.29 1011.27 1011.23 1011.05 1011.11 1010.97 1010.74 1010.51 1010.39
1013.01 1012.55 1011.98 1011.37 1010.73 1010.05 1009.37 1008.66 1007.92 1007.89 1008.20 1008.12 1008.39 1008.47 1008.37 1008.92 1007.96 1008.61 1008.28 1008.84 1008.60 1008.64 1009.14 1009.63 1010.06 1010.29 1010.92 1011.23 1011.35 1011.10 1011.14 1011.43 1011.71 1012.00 1011.91 1011.83 1011.61 1011.38 1011.31 1011.06 1011.01 1010.80 1010.36
1013.43 1012.94 1012.33 1011.70 1010.85 1009.99 1009.44 1009.14 1009.09 1009.16 1009.30 1009.24 1009.27 1009.19 1009.33 1009.13 1008.85 1008.49 1008.71 1009.70 1010.14 1010.01 1010.09 1010.02 1010.60 1010.78 1011.05 1011.09 1011.34 1011.32 1011.61 1011.84 1011.93 1012.11 1012.28 1012.31 1012.11 1011.72 1011.60 1011.51 1011.28 1010.85 1010.32
1013.87 1013.32 1012.95 1012.19 1010.85 1009.98 1010.11 1010.52 1010.56 1010.42 1010.63 1010.70 1010.55 1010.46 1010.31 1010.15 1009.68 1009.22 1009.21 1009.72 1010.37 1011.00 1010.70 1010.63 1010.92 1011.00 1010.94 1010.97 1011.62 1011.64 1011.73 1011.79 1012.05 1012.47 1012.58 1012.59 1012.36 1012.02 1011.81 1011.61 1011.45 1010.89 1010.19
1014.48 1014.08 1013.60 1012.90 1011.95 1011.72 1011.63 1011.79 1012.22 1012.28 1012.16 1011.93 1011.84 1011.59 1011.27 1011.05 1010.64 1010.41 1010.25 1010.68 1011.05 1011.58 1011.70 1011.49 1011.70 1011.84 1011.74 1011.50 1011.58 1011.56 1011.69 1011.76 1012.15 1012.31 1012.45 1012.44 1011.95 1011.73 1011.58 1011.45 1011.19 1010.81 1010.45
1015.14 1014.89 1014.18 1013.73 1013.15 1012.85 1012.87 1012.78 1013.07 1013.32 1013.64 1013.37 1013.12 1013.08 1012.51 1012.05 1011.47 1011.32 1011.30 1011.43 1011.89 1012.19 1012.51 1012.38 1012.15 1012.22 1012.57 1012.50 1012.24 1011.95 1011.81 1011.71 1011.90 1012.07 1012.21 1012.03 1011.79 1011.58 1011.48 1011.22 1010.94 1010.70 1010.46
1015.57 1015.29 1014.86 1014.43 1014.04 1013.51 1013.50 1014.00 1014.14 1014.26 1014.26 1014.24 1014.20 1013.98 1013.51 1012.90 1012.51 1012.43 1012.32 1012.37 1012.70 1013.00 1012.96 1013.17 1013.01 1013.05 1013.17 1012.92 1012.52 1012.36 1012.44 1012.11 1011.88 1011.73 1011.76 1011.58 1011.40 1011.26 1011.25 1011.06 1010.68 1010.33 1009.96
1016.31 1015.88 1015.65 1015.34 1015.05 1014.68 1014.54 1014.90 1015.27 1015.12 1015.18 1015.21 1015.06 1014.79 1014.39 1013.99 1013.57 1013.33 1013.33 1013.37 1013.63 1013.51 1013.84 1013.81 1013.33 1013.53 1013.44 1013.12 1012.92 1012.95 1012.63 1012.05 1011.59 1011.45 1011.20 1010.94 1010.81 1010.82 1010.74 1010.67 1010.55 1010.24 1009.84
1017.18 1016.76 1016.63 1016.35 1016.13 1015.76 1015.56 1015.69 1015.89 1015.93 1016.07 1016.10 1016.00 1015.65 1015.19 1014.89 1014.44 1014.17 1014.12 1014.17 1014.21 1014.25 1013.97 1013.85 1013.79 1013.78 1013.56 1013.24 1013.16 1013.03 1012.63 1012.09 1011.63 1011.10 1010.78 1010.67 1010.60 1010.70 1010.50 1010.49 1010.53 1010.51 1010.36
1017.93 1017.44 1017.46 1017.28 1017.02 1016.87 1016.66 1016.70 1016.73 1016.79 1016.84 1016.98 1016.86 1016.55 1016.23 1016.00 1015.67 1015.34 1014.99 1014.71 1014.63 1014.59 1014.56 1014.48 1014.32 1013.98 1013.57 1013.18 1012.95 1012.93 1012.59 1012.00 1011.52 1011.24 1011.04 1010.82 1010.63 1010.57 1010.59 1010.65 1010.67 1010.66 1010.55
1018.44 1018.33 1018.32 1018.26 1018.05 1017.83 1017.61 1017.41 1017.27 1017.40 1017.55 1017.57 1017.42 1017.20 1016.79 1016.39 1016.15 1015.80 1015.45 1015.15 1014.93 1014.90 1014.98 1014.83 1014.41 1013.93 1013.50 1013.17 1012.88 1012.56 1012.21 1011.82 1011.58 1011.33 1011.13 1010.95 1010.90 1010.89 1010.86 1010.78 1010.74 1010.74 1010.66
1018.90 1019.16 1019.06 1018.96 1018.79 1018.67 1018.52 1018.48 1018.43 1018.38 1018.33 1018.29 1018.07 1017.74 1017.33 1016.89 1016.51 1016.20 1015.87 1015.59 1015.26 1015.03 1014.81 1014.58 1014.30 1013.92 1013.52 1013.11 1012.86 1012.63 1012.32 1012.11 1011.92 1011.67 1011.54 1011.44 1011.29 1011.12 1011.15 1011.15 1011.08 1011.01 1010.96
1019.57 1019.76 1019.81 1019.64 1019.60 1019.57 1019.43 1019.44 1019.38 1019.19 1019.03 1018.82 1018.42 1018.08 1017.72 1017.31 1016.96 1016.67 1016.34 1016.07 1015.68 1015.30 1015.03 1014.69 1014.32 1014.01 1013.72 1013.53 1013.17 1012.91 1012.67 1012.39 1012.20 1012.07 1011.95 1011.93 1011.81 1011.67 1011.61 1011.50 1011.50 1011.37 1011.35
1020.11 1020.27 1020.30 1020.20 1020.27 1020.34 1020.43 1020.32 1020.00 1019.77 1019.54 1019.24 1018.92 1018.54 1018.17 1017.72 1017.42 1017.07 1016.73 1016.43 1016.11 1015.73 1015.19 1014.91 1014.78 1014.59 1014.35 1014.01 1013.71 1013.44 1013.13 1012.86 1012.68 1012.59 1012.47 1012.39 1012.30 1012.20 1012.15 1012.03 1011.94 1011.89 1011.82
1020.40 1020.63 1020.69 1020.64 1020.66 1020.72 1020.73 1020.53 1020.22 1020.01 1019.71 1019.34 1019.05 1018.74 1018.34 1018.07 1017.57 1017.18 1016.87 1016.58 1016.31 1016.07 1015.88 1015.76 1015.51 1015.23 1015.01 1014.71 1014.36 1014.02 1013.75 1013.52 1013.32 1013.17 1013.04 1012.96 1012.89 1012.77 1012.66 1012.56 1012.49 1012.47 1012.45
1020.39 1020.80 1020.90 1020.99 1021.01 1020.96 1020.89 1020.80 1020.68 1020.06 1019.87 1019.67 1019.42 1019.03 1018.69 1018.35 1017.98 1017.60 1017.25 1016.95 1016.68 1016.32 1016.25 1016.14 1015.96 1015.68 1015.47 1015.14 1014.83 1014.50 1014.28 1014.02 1013.83 1013.70 1013.62 1013.50 1013.35 1013.25 1013.08 1013.09 1013.03 1012.98 1013.01
1020.24 1020.53 1020.91 1021.04 1021.14 1021.04 1021.02 1021.08 1021.02 1020.80 1020.57 1020.28 1019.77 1019.54 1019.15 1018.87 1018.50 1018.12 1017.68 1017.18 1017.04 1016.67 1016.59 1016.53 1016.39 1016.17 1015.90 1015.68 1015.38 1015.11 1014.80 1014.54 1014.33 1014.21 1014.03 1013.93 1013.80 1013.70 1013.67 1013.63 1013.55 1013.48 1013.47
1020.74 1020.96 1021.24 1021.37 1021.31 1021.28 1021.30 1021.43 1021.42 1021.27 1021.15 1020.92 1020.48 1020.02 1019.72 1019.39 1018.96 1018.49 1018.27 1018.02 1017.76 1017.47 1017.25 1016.98 1016.71 1016.45 1016.24 1016.03 1015.76 1015.49 1015.22 1015.01 1014.76 1014.64 1014.49 1014.37 1014.25 1014.21 1014.19 1014.15 1014.14 1014.08 1014.00
1021.29 1021.48 1021.65 1021.79 1021.72 1021.76 1021.83 1021.90 1021.89 1021.76 1021.64 1021.48 1021.17 1021.00 1020.51 1019.90 1019.68 1019.37 1018.89 1018.65 1018.35 1018.07 1017.82 1017.49 1017.17 1016.90 1016.65 1016.26 1015.99 1015.72 1015.37 1015.19 1015.03 1014.87 1014.66 1014.56 1014.55 1014.53 1014.52 1014.46 1014.46 1014.49 1014.51
1021.86 1022.10 1022.11 1022.22 1022.17 1022.24 1022.31 1022.37 1022.36 1022.18 1022.07 1021.85 1021.68 1021.44 1021.04 1020.79 1020.52 1020.12 1019.63 1019.22 1018.95 1018.68 1018.36 1018.07 1017.76 1017.46 1017.20 1016.83 1016.38 1015.93 1015.63 1015.39 1015.01 1014.95 1014.80 1014.55 1014.62 1014.63 1014.63 1014.65 1014.71 1014.78 1014.85
1022.35 1022.51 1022.66 1022.69 1022.63 1022.72 1022.86 1022.83 1022.76 1022.61 1022.47 1022.24 1021.97 1021.63 1021.37 1021.15 1020.89 1020.57 1020.16 1019.79 1019.49 1019.21 1018.88 1018.68 1018.44 1018.19 1017.89 1017.50 1017.02 1016.49 1016.10 1015.66 1015.36 1015.11 1014.80 1014.54 1014.42 1014.53 1014.56 1014.62 1014.75 1014.91 1015.03
1022.83 1023.00 1023.12 1023.07 1023.15 1023.23 1023.26 1023.22 1023.11 1023.03 1022.88 1022.67 1022.37 1022.11 1021.88 1021.67 1021.39 1021.08 1020.75 1020.38 1020.04 1019.81 1019.54 1019.20 1018.98 1018.60 1018.16 1017.78 1017.38 1016.93 1016.53 1016.11 1015.65 1015.14 1014.76 1014.45 1014.33 1014.34 1014.42 1014.53 1014.72 1014.95 1015.10
1023.39 1023.36 1023.38 1023.57 1023.62 1023.68 1023.68 1023.59 1023.40 1023.32 1023.20 1023.03 1022.82 1022.64 1022.44 1022.19 1021.93 1021.65 1021.27 1020.92 1020.50 1020.23 1019.96 1019.70 1019.45 1019.20 1018.69 1018.13 1017.59 1017.11 1016.68 1016.22 1015.60 1014.97 1014.42 1014.19 1014.17 1014.23 1014.35 1014.53 1014.79 1015.04 1015.31
1023.94 1023.96 1023.96 1024.13 1024.18 1024.20 1024.12 1024.04 1023.91 1023.74 1023.58 1023.45 1023.31 1023.17 1022.93 1022.68 1022.46 1022.22 1021.90 1021.48 1021.20 1020.93 1020.64 1020.35 1020.08 1019.62 1019.10 1018.54 1017.98 1017.37 1016.83 1016.13 1015.45 1014.92 1014.26 1013.92 1013.96 1014.11 1014.33 1014.62 1014.90 1015.20 1015.48
1024.47 1024.50 1024.55 1024.61 1024.68 1024.65 1024.60 1024.55 1024.43 1024.29 1024.17 1024.03 1023.87 1023.67 1023.48 1023.30 1023.13 1022.88 1022.55 1022.21 1021.94 1021.59 1021.39 1021.02 1020.54 1020.08 1019.60 1018.98 1018.45 1017.75 1016.98 1016.33 1015.66 1015.00 1014.40 1013.98 1014.06 1014.23 1014.40 1014.66 1014.97 1015.27 1015.53
Wind_Speed
8 7 8 8 8 8 7 9 6 6 7 6 4 1 1 5 5 4 4 3 5 6 7 9 9 6 4 4 4 4 4 3 2 2 2 2 3 3 4 4 4 4 4
7 7 8 7 7 8 10 10 10 8 4 4 4 12 11 9 9 9 7 6 8 9 9 9 9 7 7 6 4 5 5 4 2 1 2 3 1 2 2 3 3 3 4
9 10 11 13 12 12 11 11 10 8 9 10 11 11 10 7 10 11 11 10 10 10 10 9 7 7 6 4 4 4 4 3 3 2 1 1 2 1 3 3 2 3 3
9 10 13 14 14 13 10 10 11 10 10 11 11 10 9 8 8 10 11 9 8 9 9 10 8 8 6 5 4 4 3 3 3 2 1 2 1 2 1 2 4 2 4
9 11 13 15 14 11 10 12 11 12 12 12 11 10 9 7 4 7 9 7 6 7 8 10 8 11 12 8 2 2 3 3 3 3 2 2 2 3 2 2 3 4 4
10 12 13 14 16 16 14 15 15 14 13 13 13 11 10 7 10 8 9 7 8 6 8 8 7 10 10 10 9 8 4 3 3 1 3 3 3 2 2 2 3 2 3
10 12 12 11 13 12 12 13 13 13 12 13 12 10 10 9 17 14 16 8 8 8 7 6 6 7 7 5 8 9 8 8 3 2 2 2 2 2 2 4 2 2 2
11 12 12 10 10 9 12 11 11 9 10 9 9 10 10 11 18 15 16 9 8 6 6 6 6 6 5 5 5 6 5 3 3 1 3 5 5 4 4 3 3 4 3
11 10 11 11 11 11 9 10 8 8 9 8 8 9 9 10 17 15 10 6 5 6 4 1 5 5 7 7 6 5 5 3 4 5 4 4 3 4 3 2 3 3 2
9 9 10 10 10 9 7 8 7 7 8 7 8 9 16 11 19 16 9 4 4 2 4 5 8 6 7 7 5 4 5 5 6 7 6 5 4 3 4 4 1 2 3
5 9 10 10 9 9 7 7 5 5 6 6 6 6 7 9 8 13 12 5 3 3 4 4 4 8 8 8 5 2 3 6 6 4 3 3 3 3 3 3 3 2 2
7 9 9 9 8 7 8 7 5 7 7 7 6 5 5 6 12 12 12 10 8 3 2 2 3 9 9 7 5 10 10 7 4 4 3 4 3 2 2 3 5 4 3
8 7 8 8 9 8 9 8 6 6 5 5 4 5 5 6 6 13 13 12 11 5 3 5 7 8 8 6 12 11 8 4 4 4 4 4 4 4 3 3 3 4 5
7 6 6 9 10 9 7 6 5 4 4 4 5 6 5 5 6 6 6 6 9 6 6 4 6 8 9 7 6 7 5 4 4 4 3 3 3 4 4 3 3 3 4
6 5 4 4 7 8 6 4 3 3 3 4 4 4 5 5 5 6 5 4 4 7 7 6 6 5 6 6 5 6 5 6 6 5 5 5 4 4 4 4 4 4 4
5 3 3 3 3 4 3 4 5 5 6 7 7 5 3 6 10 11 11 10 10 9 3 3 4 4 5 5 5 5 5 6 5 5 4 4 4 5 4 4 4 4 4
4 5 2 2 2 3 3 3 4 4 5 8 11 10 11 10 13 12 11 9 9 6 4 5 4 5 5 5 5 5 4 4 4 5 4 4 4 4 4 5 4 4 5
5 9 4 2 1 1 2 3 4 4 5 5 6 9 13 13 12 13 12 7 7 7 4 5 5 5 5 5 5 5 5 4 4 4 4 4 5 5 5 5 5 5 5
5 5 4 3 4 4 4 4 4 4 4 4 5 8 11 13 11 11 10 6 5 5 5 5 5 4 4 4 4 3 3 3 3 3 3 4 4 3 4 4 3 5 4
6 10 7 4 3 4 4 3 4 4 4 4 5 5 6 7 7 7 6 5 6 5 5 5 5 5 5 4 4 3 3 3 3 2 2 3 3 3 3 3 4 3 3
5 4 6 4 4 4 3 3 3 3 4 4 4 4 5 4 5 5 6 6 5 5 6 5 5 6 5 5 5 5 4 3 3 3 3 2 1 2 2 1 2 3 3
4 4 4 4 4 4 4 3 3 4 5 5 4 5 8 4 4 4 5 5 5 5 5 4 5 5 5 6 6 5 5 4 4 3 3 3 2 0 1 1 1 2 3
5 5 4 4 4 4 4 3 4 4 5 5 5 5 5 5 4 5 5 5 5 5 5 5 6 7 6 5 4 5 6 6 5 4 4 3 1 1 1 2 3 3 3
4 4 4 4 3 3 3 3 3 5 5 5 5 6 6 5 6 6 6 5 6 6 6 6 6 8 7 7 6 6 6 6 5 4 5 3 1 2 3 3 3 4 4
4 4 4 4 4 3 4 4 4 4 4 4 5 5 6 6 7 7 6 6 6 6 7 7 6 8 10 11 12 12 11 10 8 7 3 2 2 4 4 4 4 4 4
4 4 3 3 3 4 4 4 4 4 4 4 4 4 4 5 5 6 6 7 7 7 8 6 8 11 12 10 13 14 13 12 11 10 5 2 3 3 4 4 6 3 4
Wind_Direction
338 330 329 327 328 326 333 319 287 266 255 260 291 263 82 346 335 318 275 168 110 99 92 92 83 78 71 65 55 64 56 45 103 118 120 40 28 1 355 347 348 343 337
314 322 322 319 328 329 325 323 322 301 310 279 59 70 37 28 20 19 9 79 90 83 71 76 78 77 67 56 62 59 65 38 91 159 340 352 339 348 332 328 334 332 324
339 340 345 344 339 332 330 328 329 45 49 63 65 66 78 37 54 16 46 35 67 83 89 90 86 83 67 57 55 68 59 53 50 94 319 325 296 359 340 332 316 296 289
350 353 353 345 333 330 331 2 50 60 63 65 65 73 64 58 46 67 67 55 49 63 83 84 79 78 81 68 48 53 74 81 52 53 12 313 309 308 356 331 332 297 299
356 1 356 348 343 338 38 47 49 56 52 48 50 42 32 23 10 93 111 97 89 82 76 70 59 54 51 48 86 68 98 73 59 44 16 344 322 343 350 322 277 295 301
5 4 1 0 15 40 53 51 46 37 39 43 33 32 31 22 23 76 86 84 84 68 62 58 45 38 33 46 47 61 124 104 72 356 5 318 296 260 266 296 303 339 333
16 5 8 9 22 56 59 65 62 57 40 38 32 20 31 27 43 66 75 72 76 64 55 44 41 33 23 23 29 46 52 42 94 159 258 262 296 253 287 288 267 254 258
23 14 8 8 13 36 79 71 75 62 54 47 33 24 28 33 41 52 68 67 68 63 55 40 43 22 9 36 33 33 3 333 302 265 238 256 241 264 259 273 282 289 261
29 24 20 17 14 16 48 75 68 68 60 49 40 26 27 32 41 47 54 52 54 51 55 130 55 24 24 40 45 23 355 329 312 315 332 314 316 328 265 269 347 345 348
28 31 19 9 19 19 39 67 69 57 53 45 36 21 36 28 29 33 38 34 45 29 32 20 33 31 15 32 49 20 353 328 333 345 353 356 5 359 18 40 348 343 349
14 42 27 20 25 21 38 71 67 63 51 42 36 18 21 22 16 26 26 27 20 26 31 7 349 4 12 13 27 328 294 319 343 352 341 346 5 4 11 11 0 350 321
47 47 39 26 29 24 30 30 63 59 53 36 29 18 3 3 24 16 23 25 23 58 39 343 334 11 8 357 356 2 1 2 359 356 9 11 9 9 8 29 50 43 25
65 48 49 38 35 29 39 35 46 41 37 25 22 19 4 4 12 13 14 15 24 37 30 24 17 6 1 5 1 359 6 3 2 17 18 21 17 37 56 49 43 39 41
79 62 53 54 51 38 39 41 45 37 31 15 20 20 11 17 13 4 15 13 8 12 13 354 15 23 23 5 358 5 5 14 21 19 19 28 18 32 35 23 32 16 44
91 77 63 52 63 66 45 31 31 21 358 13 6 358 1 3 350 357 23 14 3 10 6 12 13 357 5 6 6 11 12 17 25 21 31 31 30 32 34 21 30 37 54
112 97 72 65 67 58 62 26 23 19 3 23 23 23 10 18 14 19 20 19 17 10 7 3 1 3 10 359 4 1 10 16 19 22 24 26 38 34 35 38 39 40 48
124 134 129 93 82 72 40 32 20 337 7 15 19 20 28 20 19 16 13 5 16 9 24 17 15 4 359 7 9 14 14 16 11 26 29 30 29 33 35 44 35 45 56
70 130 138 139 66 46 81 47 22 15 10 354 348 11 16 16 18 14 3 6 31 25 20 21 18 11 10 11 11 14 19 15 22 26 24 25 26 35 43 39 33 41 48
75 92 91 81 66 60 59 49 32 18 20 5 0 11 1 353 4 9 15 24 9 10 9 17 12 10 3 359 359 4 15 24 23 37 27 40 33 42 44 40 43 37 40
77 76 79 73 65 64 58 55 36 27 26 17 19 11 348 4 17 4 5 12 15 13 10 8 360 1 2 352 352 346 10 2 4 20 1 41 60 62 46 47 43 47 44
86 77 79 66 61 63 54 49 38 26 22 15 8 359 340 20 359 359 357 1 6 3 3 4 2 4 0 347 347 349 351 343 331 316 318 331 52 74 128 110 79 54 79
84 86 80 70 63 56 51 47 34 28 22 15 360 357 359 12 7 358 356 1 3 6 6 4 8 2 356 355 347 345 341 344 344 339 326 301 294 183 129 138 134 89 94
79 83 82 69 67 60 56 38 41 29 12 8 0 7 6 7 2 3 4 5 20 20 6 16 14 5 359 349 344 341 344 335 319 304 309 319 306 111 121 105 116 93 84
65 71 95 74 57 56 49 37 34 43 27 17 12 16 16 7 14 13 10 10 17 15 13 14 9 5 355 356 349 345 350 332 302 293 282 292 347 124 113 110 119 109 90
64 64 81 60 51 47 43 34 31 35 39 34 29 27 17 25 26 21 13 7 17 19 12 8 4 358 358 353 354 349 345 337 339 327 319 350 81 128 130 121 123 107 111
60 62 67 61 54 40 39 31 30 33 33 25 16 15 15 24 26 22 17 14 12 8 1 357 355 358 0 354 348 338 347 351 348 341 337 38 87 102 126 133 141 138 133